INTELSAT 19 (IS-19)

Last updated on Thu Jul 03 2025 00:02:46 GMT+0000 (Coordinated Universal Time)

1 38356U 12030A 25183.52813351 -.00000049 00000+0 00000+0 0 9990 2 38356 0.0126 52.9934 0003050 53.6167 170.3230 1.00272399 46946
UTC large
Height (km)
Speed (km/s)
/
Latitude / Longitude
Inclination (degrees)
Orbital Period (minutes)
Azimuth
Elevation
Range (km)
Doppler Factor

Next 0 passes for location: London (51.5072 / 0.1276)

Sorry there are no passes over London.